Hanford, CA

4:42 AM PST on January 16, 2018 (GMT -0800)
Hanford Municipal

Weather History for KHJO - September, 2014

Change the Weather History Date:

Tuesday, September 23, 2014

  Actual Average Record
Temperature  
Mean Temperature 79 °F 72 °F  
Max Temperature 94 °F 89 °F 100 °F (2003)
Min Temperature 64 °F 55 °F 46 °F (2006)
Degree Days  
Heating Degree Days 0    
Month to date heating degree days 0  
Since 1 July heating degree days 0  
Cooling Degree Days 14    
Month to date cooling degree days 346  
Year to date cooling degree days 2103  
Growing Degree Days 28 (Base 50)    
Moisture  
Dew Point 55 °F    
Average Humidity 49    
Maximum Humidity 73    
Minimum Humidity 24    
Precipitation  
Precipitation 0.00 in 0.01 in 0.20 in (1958)
Month to date precipitation T 0.12  
Year to date precipitation 2.43 6.92  
Since 1 July precipitation T  
Snow  
Snow 0.00 in - - ()
Month to date snowfall 0.0  
Since 1 July snowfall 0.0  
Since 1 September snowfall 0.0  
Snow Depth 0.00 in    
Sea Level Pressure  
Sea Level Pressure 29.91 in    
Wind  
Wind Speed 5 mph (NNW)    
Max Wind Speed 12 mph    
Max Gust Speed 15 mph    
Visibility 9 miles    
Events      
T = Trace of Precipitation, MM = Missing Value Source: NWS Daily Summary

Daily Weather History Graph

Daily Weather History Graph

Search for Another Location

Airport or City:

Trip Planner

Search our weather history database for the weather conditions in past years. The results will help you decide how hot, cold, wet, or windy it might be!

Date:

Astronomy

Sep. 23, 2014 Rise Set
Actual Time 6:47 AM PDT 6:53 PM PDT
Civil Twilight 6:21 AM PDT 7:19 PM PDT
Nautical Twilight 5:51 AM PDT 7:49 PM PDT
Astronomical Twilight 5:21 AM PDT 8:19 PM PDT
Moon 6:16 AM PDT (9/23) 6:35 PM PDT (9/23)
Length of Visible Light 12h 57m
Length of Day
12h 06m
Waning Crescent, 0% of the Moon is Illuminated
Sep 23
Waning Crescent
Sep 23
New
Oct 1
First Quarter
Oct 8
Full
Oct 15
Last Quarter

Hourly Weather History & Observations

Time (PDT) Temp. Heat Index Dew Point Humidity Pressure Visibility Wind Dir Wind Speed Gust Speed Precip Events Conditions
12:53 AM 73.0 °F - 55.9 °F 55% 29.93 in 10.0 mi NNW 8.1 mph - N/A   Clear
1:53 AM 70.0 °F - 55.9 °F 61% 29.94 in 10.0 mi NW 6.9 mph - N/A   Clear
2:53 AM 69.1 °F - 55.9 °F 63% 29.93 in 10.0 mi NNW 4.6 mph - N/A   Clear
3:53 AM 66.0 °F - 55.0 °F 68% 29.92 in 10.0 mi NNW 6.9 mph - N/A   Clear
4:53 AM 69.1 °F - 55.9 °F 63% 29.93 in 10.0 mi NNW 6.9 mph - N/A   Clear
5:53 AM 64.9 °F - 55.9 °F 73% 29.94 in 10.0 mi Calm Calm - N/A   Clear
6:53 AM 64.9 °F - 55.9 °F 73% 29.96 in 8.0 mi WNW 5.8 mph - N/A   Clear
7:53 AM 66.0 °F - 55.9 °F 70% 29.97 in 8.0 mi NNW 5.8 mph - N/A   Clear
8:53 AM 70.0 °F - 55.9 °F 61% 29.98 in 8.0 mi NNW 5.8 mph - N/A   Clear
9:53 AM 75.0 °F - 55.9 °F 51% 29.98 in 9.0 mi NW 5.8 mph - N/A   Clear
10:53 AM 80.1 °F 80.1 °F 55.0 °F 42% 29.98 in 9.0 mi NW 6.9 mph - N/A   Clear
11:53 AM 84.0 °F 82.6 °F 54.0 °F 35% 29.96 in 9.0 mi NW 6.9 mph - N/A   Clear
12:53 PM 87.1 °F 85.1 °F 54.0 °F 32% 29.94 in 10.0 mi Variable 3.5 mph - N/A   Clear
1:53 PM 89.1 °F 86.7 °F 53.1 °F 29% 29.91 in 10.0 mi Calm Calm - N/A   Clear
2:53 PM 91.9 °F - 51.1 °F 25% 29.88 in 10.0 mi West 4.6 mph - N/A   Clear
3:53 PM 93.9 °F 91.7 °F 54.0 °F 26% 29.86 in 9.0 mi NE 5.8 mph - N/A   Clear
4:53 PM 93.0 °F - 52.0 °F 25% 29.85 in 10.0 mi North 5.8 mph - N/A   Clear
5:53 PM 91.9 °F - 51.1 °F 25% 29.84 in 10.0 mi North 5.8 mph - N/A   Clear
6:53 PM 87.1 °F 85.1 °F 54.0 °F 32% 29.84 in 9.0 mi North 3.5 mph - N/A   Clear
7:53 PM 81.0 °F 80.7 °F 55.0 °F 41% 29.85 in 10.0 mi Calm Calm - N/A   Clear
8:53 PM 77.0 °F - 55.0 °F 47% 29.86 in 9.0 mi Calm Calm - N/A   Clear
9:53 PM 78.1 °F - 54.0 °F 43% 29.88 in 9.0 mi NW 3.5 mph - N/A   Clear
10:53 PM 78.1 °F - 55.0 °F 45% 29.89 in 10.0 mi NW 4.6 mph - N/A   Clear
11:53 PM 75.0 °F - 57.0 °F 53% 29.89 in 9.0 mi NW 8.1 mph - N/A   Clear